This is the latest recevied weather packets stored in our database for station/object KD4WLE. If no packets are shown the sender has not sent any weather packets the latest 10 day(s).
| Time | Temp. | Humidity | Pressure | Rain* | Wind** | Luminosity | Snow |
|---|---|---|---|---|---|---|---|
| 1777470867 | 26.11° C | 82% | 1018.7 hPa | 0 mm | - | 458 W/m² | - |
| 1777470564 | 26.11° C | 82% | 1018.6 hPa | 0 mm | - | 431 W/m² | - |
| 1777470260 | 26.11° C | 82% | 1018.6 hPa | 0 mm | - | 410 W/m² | - |
| 1777469956 | 26.11° C | 83% | 1018.4 hPa | 0 mm | - | 394 W/m² | - |
| 1777469652 | 25.56° C | 84% | 1018.3 hPa | 0 mm | - | 377 W/m² | - |
| 1777469347 | 25° C | 87% | 1018.6 hPa | 0 mm | - | 358 W/m² | - |
| 1777469043 | 24.44° C | 89% | 1019 hPa | 0 mm | - | 345 W/m² | - |
| 1777468738 | 23.89° C | 91% | 1019.1 hPa | 0 mm | - | 333 W/m² | - |
| 1777468435 | 23.89° C | 92% | 1019.3 hPa | 0 mm | - | 206 W/m² | - |
| 1777468130 | 23.33° C | 92% | 1019.1 hPa | 0 mm | - | 262 W/m² | - |
| 1777467827 | 22.78° C | 95% | 1018.7 hPa | 0 mm | - | 231 W/m² | - |
| 1777467522 | 22.22° C | 96% | 1018.6 hPa | 0 mm | - | 163 W/m² | - |
| 1777467218 | 21.67° C | 97% | 1018.5 hPa | 0 mm | - | 158 W/m² | - |
| 1777466915 | 21.67° C | 98% | 1018.3 hPa | 0 mm | - | 138 W/m² | - |
| 1777466613 | 21.67° C | 99% | 1018.4 hPa | 0 mm | - | 133 W/m² | - |
| 1777466309 | 21.67° C | 99% | 1018.3 hPa | 0 mm | - | 129 W/m² | - |
| 1777466006 | 21.67° C | 99% | 1018.3 hPa | 0 mm | - | 125 W/m² | - |
| 1777465702 | 21.11° C | 99% | 1018.2 hPa | 0 mm | - | 127 W/m² | - |
| 1777465398 | 21.11° C | 99% | 1018 hPa | 0 mm | - | 130 W/m² | - |
| 1777465096 | 21.11° C | 99% | 1018 hPa | 0 mm | - | 130 W/m² | - |
| 1777464792 | 20.56° C | 99% | 1018 hPa | 0 mm | - | 145 W/m² | - |
| 1777464488 | 20.56° C | 99% | 1017.9 hPa | 0 mm | - | 115 W/m² | - |
| 1777464184 | 20° C | 99% | 1018 hPa | 0 mm | - | 83 W/m² | - |
| 1777463884 | 19.44° C | 99% | 1018 hPa | 0 mm | - | 55 W/m² | - |
| 1777463580 | 19.44° C | 99% | 1018 hPa | 0 mm | - | 49 W/m² | - |
* Rain latest hour (hover to see other rain measurements)
** Current wind speed in m/s (hover to see current wind gust speed)